Location: Wildlife_Club
(35.6000°N, 81.4330°W)
Time: 19:01:03
(UTC-04:00)

Tiros 1 despin weight - Visible Passes

Search period start: 18 June 2019 00:00
Search period end: 28 June 2019 00:00
Orbit: 595 x 642 km, 48.2° (Epoch: 18 June)

Date Brightness Start Highest point End Pass type
(mag) Time Alt. Az. Time Alt. Az. Time Alt. Az.
18 Jun ? 01:16:51 11° ENE 01:16:51 11° ENE 01:17:00 10° ENE visible
18 Jun ? 02:53:53 30° NW 02:54:25 31° NNW 02:58:21 10° NE visible
18 Jun ? 04:34:15 10° NW 04:37:00 16° N 04:39:47 10° NE visible
19 Jun ? 01:32:09 21° NE 01:32:09 21° NE 01:33:42 10° NE visible
19 Jun ? 03:09:10 15° NW 03:11:22 21° NNW 03:14:48 10° NE visible
19 Jun ? 04:51:26 10° NW 04:54:11 16° N 04:56:55 10° NE visible
20 Jun ? 01:47:21 32° NNE 01:47:21 32° NNE 01:50:13 10° NE visible
20 Jun ? 03:25:31 10° NW 03:28:28 17° N 03:31:24 10° NNE visible
20 Jun ? 05:08:13 10° NNW 05:11:18 18° NNE 05:14:25 10° ENE visible
21 Jun ? 00:25:24 10° ENE 00:25:24 10° ENE 00:25:27 10° ENE visible
21 Jun ? 02:02:24 25° NNW 02:02:55 26° NNW 02:06:39 10° NE visible
21 Jun ? 03:42:54 10° NW 03:45:37 16° N 03:48:19 10° NE visible
21 Jun ? 05:24:45 10° NW 05:28:22 24° NNE 05:31:59 10° ENE visible
22 Jun ? 00:40:14 23° NE 00:40:14 23° NE 00:42:03 10° NE visible
22 Jun ? 02:17:13 12° NW 02:19:56 19° NNW 02:23:09 10° NNE visible
22 Jun ? 03:59:55 10° NNW 04:02:47 17° N 04:05:38 10° NE visible
22 Jun ? 05:41:12 10° NW 05:45:17 36° NNE 05:49:23 10° E visible
23 Jun ? 00:54:33 33° NNW 00:54:33 33° NNW 00:58:31 10° NE visible
23 Jun ? 02:34:15 10° NW 02:37:03 16° N 02:39:51 10° NE visible
23 Jun ? 04:16:34 10° NNW 04:19:53 20° NNE 04:23:11 10° ENE visible
23 Jun ? 21:45:40 10° SSE 21:53:26 - ENE 21:46:39 13° SSE visible
23 Jun ? 23:30:01 65° NE 23:30:01 65° NE 23:33:51 10° NE visible
24 Jun ? 01:07:53 10° WNW 01:11:26 23° NNW 01:14:58 10° NE visible
24 Jun ? 02:51:29 10° NW 02:54:13 16° N 02:56:57 10° NE visible
24 Jun ? 04:33:03 10° NW 04:36:53 28° NNE 04:40:42 10° E visible
24 Jun ? 22:00:38 10° SSW 22:04:39 32° SE 22:08:38 10° ENE visible
24 Jun ? 23:41:49 10° WSW 23:46:06 44° NNW 23:50:22 10° NE visible
25 Jun ? 01:25:28 10° NW 01:28:30 18° N 01:31:31 10° NNE visible
25 Jun ? 03:08:19 10° NNW 03:11:22 18° N 03:14:23 10° NE visible
25 Jun ? 04:49:29 10° NW 04:53:45 45° NNE 04:58:00 10° ESE visible
25 Jun ? 22:16:40 10° SW 22:21:09 68° SE 22:25:34 10° ENE visible
25 Jun ? 23:59:06 10° W 00:02:58 28° NNW 00:06:49 10° NE visible
26 Jun ? 01:42:54 10° NW 01:45:39 16° N 01:48:22 10° NE visible
26 Jun ? 03:24:53 10° NW 03:28:25 23° NNE 03:31:57 10° ENE visible
26 Jun ? 05:06:01 10° NW 05:10:27 84° NE 05:14:52 10° SE visible
26 Jun ? 22:33:18 10° WSW 22:37:46 62° NNW 22:42:12 10° NE visible
27 Jun ? 00:16:38 10° WNW 00:19:58 20° NNW 00:23:17 10° NNE visible
27 Jun ? 01:59:58 10° NW 02:02:49 16° N 02:05:38 10° NE visible
27 Jun ? 03:41:20 10° NW 03:45:22 33° NNE 03:49:23 10° E visible
27 Jun ? 05:22:46 10° WNW 05:27:01 47° SW 05:31:15 10° SSE visible
27 Jun ? 22:50:23 10° W 22:54:33 36° NNW 22:58:41 10° NE visible
